MORELOS 3

Last updated on Sun Jun 21 2026 00:03:06 GMT+0000 (Coordinated Universal Time)

1 40946U 15056A 26171.36017014 -.00000049 00000+0 00000+0 0 9991 2 40946 3.1894 15.1488 0001027 3.9237 266.0631 1.00270955 39310
UTC large
Height (km)
Speed (km/s)
/
Latitude / Longitude
Inclination (degrees)
Orbital Period (minutes)
Azimuth
Elevation
Range (km)
Doppler Factor

Next 0 passes for location: London (51.5072 / 0.1276)

No passes found over London.
MORELOS 3